Altus AFB, OK

5:41 AM CDT on April 29, 2017 (GMT -0500)
Altus Air Force Base

Weather History for KLTS - July, 2013

Change the Weather History Date:

Sunday, July 28, 2013

  Actual Average Record
Temperature  
Mean Temperature 78 °F -  
Max Temperature 90 °F 96 °F 107 °F (1998)
Min Temperature 66 °F 71 °F 57 °F (2005)
Cooling Degree Days 13    
Growing Degree Days 28 (Base 50)    
Moisture  
Dew Point 63 °F    
Average Humidity 58    
Maximum Humidity 100    
Minimum Humidity 31    
Precipitation  
Precipitation 0.00 in - - ()
Sea Level Pressure  
Sea Level Pressure 29.91 in    
Wind  
Wind Speed 11 mph (SE)    
Max Wind Speed 18 mph    
Max Gust Speed 25 mph    
Visibility 10 miles    
Events      
Averages and records for this station are not official NWS values.
T = Trace of Precipitation, MM = Missing Value Source: NWS Daily Summary

Daily Weather History Graph

Daily Weather History Graph

Search for Another Location

Airport or City:

Trip Planner

Search our weather history database for the weather conditions in past years. The results will help you decide how hot, cold, wet, or windy it might be!

Date:

Astronomy

Jul. 28, 2013 Rise Set
Actual Time 6:44 AM CDT 8:42 PM CDT
Civil Twilight 6:16 AM CDT 9:10 PM CDT
Nautical Twilight 5:42 AM CDT 9:43 PM CDT
Astronomical Twilight 5:06 AM CDT 10:20 PM CDT
Moon No Moon Rise 1:09 PM CDT (7/28)
Length of Visible Light 14h 53m
Length of Day
13h 57m
Waning Gibbous, 60% of the Moon is Illuminated
Jul 28
Waning Gibbous
Jul 29
Last Quarter
Aug 6
New
Aug 14
First Quarter
Aug 20
Full

Hourly Weather History & Observations

Time (CDT) Temp. Heat Index Dew Point Humidity Pressure Visibility Wind Dir Wind Speed Gust Speed Precip Events Conditions
12:58 AM 73.9 °F - 66.4 °F 77% 29.96 in 10.0 mi SE 10.4 mph - N/A   Clear
1:58 AM 70.3 °F - 66.6 °F 88% 29.96 in 10.0 mi SE 8.1 mph - N/A   Clear
2:58 AM 68.9 °F - 67.5 °F 95% 29.94 in 10.0 mi SSE 8.1 mph - N/A   Clear
3:58 AM 68.2 °F - 68.2 °F 100% 29.93 in 10.0 mi SE 5.8 mph - N/A   Clear
4:58 AM 67.5 °F - 67.5 °F 100% 29.92 in 10.0 mi SE 5.8 mph - N/A   Clear
5:58 AM 66.0 °F - 66.0 °F 100% 29.93 in 10.0 mi East 4.6 mph - N/A   Clear
6:58 AM 66.7 °F - 66.7 °F 100% 29.93 in 10.0 mi SE 6.9 mph - N/A   Clear
7:58 AM 68.0 °F - 68.0 °F 100% 29.95 in 10.0 mi SE 8.1 mph - N/A   Clear
8:58 AM 74.7 °F - 67.6 °F 79% 29.96 in 10.0 mi South 11.5 mph - N/A   Clear
9:58 AM 79.3 °F - 65.5 °F 62% 29.96 in 10.0 mi SSE 16.1 mph - N/A   Clear
10:58 AM 81.7 °F 83.6 °F 65.8 °F 58% 29.95 in 10.0 mi SSE 13.8 mph - N/A   Clear
11:58 AM 84.0 °F 85.6 °F 64.4 °F 52% 29.94 in 10.0 mi SSE 16.1 mph - N/A   Clear
12:58 PM 86.2 °F 86.8 °F 62.4 °F 45% 29.93 in 10.0 mi South 15.0 mph - N/A   Clear
1:01 PM 86.0 °F 86.6 °F 62.6 °F 45% 29.97 in 10.0 mi SE 15.0 mph 20.7 mph N/A   Clear
1:18 PM 86.0 °F 86.1 °F 60.8 °F 43% 29.97 in 10.0 mi SE 16.1 mph 23.0 mph N/A   Clear
1:28 PM 86.0 °F 86.1 °F 60.8 °F 43% 29.96 in 10.0 mi South 12.7 mph 19.6 mph N/A   Clear
1:52 PM 87.8 °F 87.1 °F 59.0 °F 38% 29.96 in 10.0 mi South 12.7 mph - N/A   Clear
1:58 PM 87.4 °F 86.7 °F 58.8 °F 38% 29.92 in 10.0 mi SSE 12.7 mph - N/A   Clear
2:58 PM 89.2 °F 87.5 °F 56.1 °F 32% 29.88 in 10.0 mi SSE 16.1 mph 21.9 mph N/A   Clear
3:02 PM 89.6 °F 88.9 °F 59.0 °F 36% 29.93 in 10.0 mi South 15.0 mph 21.9 mph N/A   Clear
3:58 PM 90.3 °F 88.8 °F 56.5 °F 32% 29.87 in 10.0 mi SE 15.0 mph 25.3 mph N/A   Clear
4:58 PM 90.7 °F 89.0 °F 56.3 °F 31% 29.83 in 10.0 mi South 18.4 mph 21.9 mph N/A   Clear
5:40 PM 89.6 °F 88.9 °F 59.0 °F 36% 29.87 in 10.0 mi South 18.4 mph - N/A   Clear
5:58 PM 90.1 °F 89.6 °F 59.5 °F 36% 29.83 in 10.0 mi SSE 16.1 mph 23.0 mph N/A   Clear
6:01 PM 89.6 °F 88.9 °F 59.0 °F 36% 29.87 in 10.0 mi SE 16.1 mph - N/A   Clear
6:58 PM 89.1 °F 88.8 °F 60.4 °F 38% 29.84 in 10.0 mi South 17.3 mph - N/A   Clear
7:58 PM 86.5 °F 86.1 °F 59.7 °F 40% 29.86 in 10.0 mi SSE 12.7 mph - N/A   Clear
8:58 PM 82.4 °F 83.0 °F 61.5 °F 49% 29.87 in 10.0 mi ESE 11.5 mph - N/A   Clear
9:58 PM 81.1 °F 82.9 °F 65.3 °F 58% 29.88 in 10.0 mi ESE 12.7 mph - N/A   Clear
10:58 PM 80.2 °F 82.2 °F 65.8 °F 61% 29.89 in 10.0 mi ESE 13.8 mph - N/A   Clear
11:58 PM 79.0 °F - 66.2 °F 65% 29.89 in 10.0 mi ESE 12.7 mph - N/A   Clear